Regional Weather Roundup
Issued by NWS

Home | Current Version | Previous Version | Text Only | Print | Product List | Glossary On
Versions: 1 2 3 4 5 6 7 8 9 10 11 12 13 14 15 16 17 18 19 20 21 22 23 24 25 26 27 28 29 30 31 32 33 34 35 36 37 38 39 40 41 42 43 44 45 46 47 48 49 50
000
ASUS43 KLOT 200308
RWRIL

ILLINOIS REGIONAL WEATHER ROUNDUP
NATIONAL WEATHER SERVICE CHICAGO/ROMEOVILLE IL
1000 PM CDT SAT AUG 19 2017

NOTE: "FAIR" INDICATES FEW OR NO CLOUDS BELOW 12,000 FEET WITH NO
SIGNIFICANT WEATHER AND/OR OBSTRUCTIONS TO VISIBILITY.

* THESE STATIONS ARE NOT UNDER NWS QUALITY CONTROL. THEY ALSO MAY NOT
  REPORT WEATHER SUCH AS PRECIPITATION OR FOG.

ILZ001-002-007-009-015-016-024-200400-
NORTHWEST ILLINOIS

CITY           SKY/WX    TMP DP  RH WIND       PRES   REMARKS
MOLINE         CLEAR     68  62  81 E3        29.95R
STERLING*      CLEAR     64  63  96 E5        29.97S
SAVANNA*       CLEAR     66  63  90 CALM      29.96S
$$

ILZ003-004-008-010-011-017-018-200400-
NORTH CENTRAL ILLINOIS

CITY           SKY/WX    TMP DP  RH WIND       PRES   REMARKS
ROCKFORD       CLEAR     68  63  84 CALM      29.99R
FREEPORT*      CLEAR     62  60  96 CALM      29.99S
ROCHELLE*      CLEAR     63  62  96 CALM      29.99R
DE KALB*       CLEAR     68  60  75 CALM      29.99S
PERU*          CLEAR     68  60  77 E5        29.98R
$$

ILZ005-006-012>014-019>023-200400-
NORTHEAST ILLINOIS

CITY           SKY/WX    TMP DP  RH WIND       PRES   REMARKS
CHICAGO-OHARE  CLEAR     71  54  54 SE7       29.97R
CHICAGO-MIDWAY CLEAR     75  56  51 SE6       29.97R
AURORA         CLEAR     63  62  97 CALM      29.98R
LANSING*       CLEAR     68  55  62 CALM      29.98S
JOLIET*        CLEAR     66  62  85 CALM      29.97S
WAUKEGAN       CLEAR     65  62  90 CALM      29.97R
DUPAGE AIRPORT CLEAR     67  62  84 CALM      29.97R
KANKAKEE*      CLEAR     66  63  88 CALM      29.99R
WHEELING       CLEAR     68  60  75 CALM      29.99R
MORRIS*        CLEAR     69  59  70 CALM      29.97R
ROMEOVILLE*    CLEAR     70  56  62 CALM      29.98S
NORTHERLY ISL    N/A     72  62  71 E7          N/A
$$

LMZ740>746-200400-
SOUTHERN LAKE MICHIGAN

STATION/POSITION SKY/WX   TEMP    WIND        PRES    VSBY  WAVE
                          AIR SEA DIR/SP/G                  HT/PER
                          (F)     (DEG/KT/KT) (MB)    (MI)  (FT/S)
SOUTHERN BUOY              72 72  190/  6/  8 1015.0R         1
WILMETTE HARBOR            74 73  150/  6/  8   N/A           1/ 2
HARRISON CRIB              74     150/  9/ 10   N/A
CALUMET HARBOR             75     120/  3/  6 1014.5R
BURNS HARBOR               74     100/  8/  9 1015.6
MICHIGAN CITY              70     110/  3/  4   N/A
MICHIGAN CITY 6N           73 75  120/  6/  8   N/A           1
ST. JOSEPH                 72 79  140/  6/  6 1015.2          1
$$

ILZ025>027-034>036-040-047-049-050-058-095>099-200400-
WEST-CENTRAL ILLINOIS

CITY           SKY/WX    TMP DP  RH WIND       PRES   REMARKS
QUINCY         CLEAR     75  68  78 E6        29.94R
GALESBURG*     CLEAR     70  63  79 E3        29.97R
MACOMB*        CLEAR     66  64  94 E5        29.97S
JACKSONVILLE*  CLEAR     71  67  89 E5        29.95R
PITTSFIELD*    PTCLDY    76  68  78 E3        29.96R
$$

ILZ028>032-037-038-041>044-048-051>054-059>061-200400-
CENTRAL ILLINOIS

CITY           SKY/WX    TMP DP  RH WIND       PRES   REMARKS
PONTIAC        CLEAR     64  64  99 CALM      29.98S
BLOOMINGTON    CLEAR     68  64  87 E7        29.99S
DECATUR        CLEAR     70  67  90 CALM      29.98R
PEORIA         CLEAR     71  64  78 E3        29.96R
LACON*         CLEAR     67  61  82 CALM      29.96R
LINCOLN*       CLEAR     69  66  89 CALM      29.97R
SPRINGFIELD    CLEAR     74  69  85 E5        29.96R
TAYLORVILLE    CLEAR     71  69  93 CALM      29.97R
$$

ILZ033-039-045-046-055>057-062-063-200400-
EAST-CENTRAL ILLINOIS

CITY           SKY/WX    TMP DP  RH WIND       PRES   REMARKS
CHAMPAIGN      CLEAR     72  64  76 E5        29.98R
RANTOUL*       CLEAR     74  66  77 E3        29.98S
MATTOON        CLEAR     72  71  97 CALM      29.97R
PARIS*         PTCLDY    72  67  86 E6        29.99R
$$

ILZ079-100>102-200400-
SOUTHWEST ILLINOIS

CITY           SKY/WX    TMP DP  RH WIND       PRES   REMARKS
ALTON          CLEAR     72  72 100 CALM      29.96R
BELLEVILLE     CLEAR     74  71  89 CALM      29.97R
CAHOKIA*       PTCLDY    75  68  78 CALM      29.95R
SPARTA*        PTCLDY    74  72  91 CALM      29.97R
$$

ILZ064>066-069>071-074>076-080>082-084>086-088>090-092>094-200400-
SOUTH-CENTRAL ILLINOIS

CITY           SKY/WX    TMP DP  RH WIND       PRES   REMARKS
CARBONDALE     PTCLDY    74  74 100 CALM      29.97R
CAIRO*         CLEAR     79  72  80 S5        29.97R HX  81
EFFINGHAM*     CLEAR     72  71  96 CALM      29.98S
MARION         PTCLDY    77  73  88 CALM      29.98R
MT. VERNON       N/A     71  70  96 CALM      29.97R
CENTRALIA*     CLOUDY    74  71  91 CALM      29.96R
SALEM*         CLEAR     71  68  90 CALM      29.97R
METROPOLIS*    CLEAR     73  71  94 CALM      29.98R
$$

ILZ067-068-072-073-078-083-087-091-200400-
SOUTHEAST ILLINOIS

CITY           SKY/WX    TMP DP  RH WIND       PRES   REMARKS
LAWRENCEVILLE  PTCLDY    77  70  79 CALM      29.96S
FLORA*         PTCLDY    74  70  87 CALM      29.97R
FAIRFIELD*     CLEAR     73  72  98 CALM      29.96R
HARRISBURG*    CLEAR     72  71  96 CALM      29.97R
ROBINSON*      CLEAR     67  67  99 CALM      29.97R
CARMI*         CLEAR     71  71 100 CALM      29.97R
$$

ABBREVIATIONS USED IN REMARKS
   TC - TEMPERATURE IN CELSIUS
  WCI - WIND CHILL INDEX
   HX - HEAT INDEX
  VSB - VISIBILITY
$$





USA.gov is the U.S. government's official web portal to all federal, state and local government web resources and services.